This demonstration page uses our WeatherBlox Daily Observations layout. Learn more.

Left ArrowRight Arrow

39.51506, -84.39828

Hourly Observations for June 3, 2015

Temp ( °F °C ) Dew Point ( °F °C ) Humidity (%) Winds ( mph kmh ) Pressure ( in mb ) Visibility ( mi km ) Precip ( " mm )
12:15 am 00:15 Cloudy 55 12.5 51 10.5 88 88 N N/A 30.12 1020 7 11 N/A
12:35 am 00:35 Mostly Cloudy 55 12.5 51 10.6 88 88 N N/A 30.12 1020 7 11 N/A
12:55 am 00:55 Partly Cloudy 55 12.5 51 10.6 88 88 N N/A 30.12 1020 7 11 N/A
1:15 am 01:15 Clear with Mist and Fog 55 12.5 51 10.6 88 88 N N/A 30.12 1020 3 5 N/A
1:35 am 01:35 Mostly Cloudy with Mist and Fog 55 12.5 51 10.6 88 88 N N/A 30.12 1020 2 3 N/A
1:55 am 01:55 Partly Cloudy with Mist and Fog 55 12.5 51 10.6 88 88 N N/A 30.12 1020 5 8 N/A
2:15 am 02:15 Partly Cloudy with Mist and Fog 54 12.4 51 10.6 89 89 N N/A 30.09 1019 4 6 N/A
2:35 am 02:35 Clear 55 12.5 51 10.7 89 89 N N/A 30.09 1019 7 11 N/A
2:55 am 02:55 Clear with Mist and Fog 54 12.1 51 10.3 89 89 N N/A 30.09 1019 5 8 N/A
3:15 am 03:15 Clear 52 11 49 9.3 89 89 N 3 6 30.09 1019 7 11 N/A
3:35 am 03:35 Clear with Mist and Fog 52 11 49 9.3 89 89 N N/A 30.09 1019 4 6 N/A
3:55 am 03:55 Clear with Mist and Fog 51 10.3 47 8.6 89 89 N 3 6 30.09 1019 5 8 N/A
4:15 am 04:15 Clear with Mist and Fog 52 11 49 9.3 89 89 N N/A 30.09 1019 5 8 N/A
4:35 am 04:35 Partly Cloudy with Mist and Fog 49 9.7 47 8.1 90 90 N N/A 30.09 1019 3 5 N/A
4:55 am 04:55 Mostly Cloudy with Mist and Fog 52 11.1 49 9.6 91 91 N N/A 30.09 1019 4 6 N/A
5:15 am 05:15 Cloudy with Mist and Fog 55 12.5 51 10.7 89 89 N N/A 30.09 1019 4 6 N/A
5:35 am 05:35 Cloudy with Mist and Fog 55 12.5 51 10.7 89 89 N N/A 30.09 1019 4 6 N/A
5:55 am 05:55 Cloudy with Mist and Fog 55 12.5 51 10.7 89 89 N N/A 30.09 1019 4 6 N/A
6:15 am 06:15 Cloudy with Mist and Fog 55 12.5 51 10.7 89 89 N N/A 30.09 1019 5 8 N/A
6:35 am 06:35 Cloudy with Mist and Fog 57 13.8 54 12.1 90 90 N N/A 30.09 1019 3 5 N/A
6:55 am 06:55 Cloudy with Mist and Fog 57 13.8 54 12 89 89 N N/A 30.09 1019 3 5 N/A
7:15 am 07:15 Cloudy with Mist and Fog 57 13.8 54 12 89 89 N N/A 30.09 1019 3 5 N/A
7:35 am 07:35 Cloudy with Mist and Fog 57 13.8 53 11.9 88 88 N N/A 30.09 1019 3 5 N/A
7:55 am 07:55 Cloudy with Mist and Fog 57 13.9 53 11.9 88 88 N N/A 30.12 1020 3 5 N/A
8:15 am 08:15 Cloudy with Mist and Fog 60 15.3 56 13.2 87 87 NE 3 6 30.12 1020 4 6 N/A
8:35 am 08:35 Cloudy with Haze 60 15.3 55 13 86 86 NNE 5 7 30.12 1020 5 8 N/A
8:55 am 08:55 Cloudy 60 15.3 55 12.7 85 85 N N/A 30.12 1020 7 11 N/A
9:15 am 09:15 Cloudy 60 15.3 55 12.5 84 84 NE 3 6 30.12 1020 7 11 N/A
9:35 am 09:35 Cloudy 61 16 55 12.8 81 81 NNE 3 6 30.12 1020 7 11 N/A
9:55 am 09:55 Cloudy 61 16 55 12.5 80 80 N N/A 30.12 1020 10 16 N/A
10:15 am 10:15 Cloudy 62 16.6 55 12.8 78 78 NNW 5 7 30.09 1019 10 16 N/A
10:35 am 10:35 Cloudy 63 17 55 12.7 76 76 ENE 3 6 30.06 1018 10 16 N/A
10:55 am 10:55 Cloudy 64 18 56 13.5 75 75 NNE 3 6 30.06 1018 10 16 N/A
11:15 am 11:15 Mostly Cloudy 69 20.8 60 15.4 71 71 N N/A 30.06 1018 10 16 N/A
11:35 am 11:35 Cloudy 69 20.8 60 15.3 71 71 E 3 6 30.06 1018 7 11 N/A
11:55 am 11:55 Cloudy 69 20.8 59 15.1 70 70 ENE 5 7 30.06 1018 10 16 N/A
12:15 pm 12:15 Cloudy 69 20.8 58 14.7 68 68 ENE 3 6 30.06 1018 10 16 N/A
12:35 pm 12:35 Cloudy 69 20.8 58 14.4 67 67 E 7 11 30.06 1018 10 16 N/A
12:55 pm 12:55 Cloudy 69 20.8 58 14.4 67 67 ENE 3 6 30.06 1018 10 16 N/A
1:15 pm 13:15 Cloudy 69 20.8 58 14.3 66 66 ENE 3 6 30.06 1018 10 16 N/A
1:35 pm 13:35 Cloudy 69 20.8 58 14.6 68 68 NNW 5 7 30.06 1018 10 16 N/A
1:55 pm 13:55 Cloudy 69 20.8 58 14.2 66 66 N N/A 30.06 1018 10 16 N/A
2:15 pm 14:15 Cloudy 69 20.8 57 13.7 64 64 N N/A 30.06 1018 10 16 N/A
2:35 pm 14:35 Cloudy 74 23.6 60 15.4 60 60 N N/A 30.06 1018 10 16 N/A
2:55 pm 14:55 Mostly Cloudy 74 23.6 59 14.9 58 58 ENE 5 7 30.03 1017 10 16 N/A
3:15 pm 15:15 Mostly Cloudy 74 23.6 58 14.7 58 58 N N/A 30.03 1017 10 16 N/A
3:35 pm 15:35 Cloudy 74 23.6 59 15.1 59 59 NE 5 7 30.03 1017 10 16 N/A
3:55 pm 15:55 Cloudy 74 23.6 60 15.6 61 61 E 7 11 30.03 1017 10 16 N/A
4:15 pm 16:15 Mostly Cloudy 74 23.6 59 14.9 58 58 ENE 5 7 30.03 1017 10 16 N/A
4:35 pm 16:35 Mostly Cloudy 74 23.6 59 14.9 58 58 ESE 5 7 30.00 1016 10 16 N/A
4:55 pm 16:55 Cloudy 74 23.6 59 15.2 59 59 E 5 7 30.00 1016 10 16 N/A
5:15 pm 17:15 Cloudy 74 23.6 59 15 59 59 N N/A 30.00 1016 10 16 N/A
5:35 pm 17:35 Cloudy 74 23.6 59 15 59 59 N N/A 30.00 1016 10 16 N/A
5:55 pm 17:55 Mostly Cloudy 74 23.6 58 14.4 56 56 SE 3 6 30.00 1016 10 16 N/A
6:15 pm 18:15 Cloudy 74 23.6 58 14.4 56 56 E 3 6 30.00 1016 10 16 N/A
6:35 pm 18:35 Cloudy 74 23.6 58 14.7 58 58 SE 3 6 30.00 1016 10 16 N/A
6:55 pm 18:55 Cloudy 74 23.6 58 14.7 58 58 ESE 3 6 30.00 1016 10 16 N/A
7:15 pm 19:15 Mostly Cloudy 74 23.6 58 14.5 57 57 ESE 3 6 30.00 1016 10 16 N/A
7:35 pm 19:35 Mostly Cloudy 74 23.6 58 14.6 57 57 SSE 3 6 30.00 1016 10 16 N/A
7:55 pm 19:55 Mostly Cloudy 74 23.6 59 15 59 59 SSE 5 7 30.00 1016 10 16 N/A
8:15 pm 20:15 Mostly Cloudy 74 23.6 60 15.4 60 60 SSE 5 7 30.00 1016 10 16 N/A
8:35 pm 20:35 Cloudy 72 22.3 58 14.2 60 60 E 5 7 30.00 1016 10 16 N/A
8:55 pm 20:55 Cloudy 72 22.1 58 14.3 61 61 ESE 6 9 30.00 1016 10 16 N/A
9:15 pm 21:15 Cloudy 71 21.6 57 14 62 62 N N/A 30.00 1016 10 16 N/A
9:35 pm 21:35 Cloudy 69 20.8 60 15.4 71 71 N N/A 30.03 1017 10 16 N/A
9:55 pm 21:55 Cloudy 69 20.8 63 17.3 80 80 N N/A 30.03 1017 10 16 N/A
10:15 pm 22:15 Cloudy 67 19.5 62 16.4 82 82 N N/A 30.03 1017 10 16 N/A
10:35 pm 22:35 Partly Cloudy 66 18.8 60 15.8 83 83 N N/A 30.03 1017 10 16 N/A
10:55 pm 22:55 Clear 62 16.5 57 14.1 86 86 N N/A 30.03 1017 7 11 N/A
11:15 pm 23:15 Clear 62 16.6 58 14.5 88 88 N N/A 30.03 1017 7 11 N/A
11:35 pm 23:35 Clear with Mist and Fog 61 16 57 13.8 87 87 N N/A 30.03 1017 5 8 N/A
11:55 pm 23:55 Clear with Mist and Fog 60 15.3 56 13.3 88 88 N N/A 30.06 1018 5 8 N/A

Powered by AerisWeather